Theta_e
298 297 297 298 299 301 301 301 301 300 300 300 301 301 301 300 301 299 296 299 294 287 288 288 292 289 288 288 281 284 286 286 286 283 282 283 282 281 282 282 282 283 283 282 282 274 274 284 284 282 286 283 283 284
298 297 297 297 298 299 300 300 300 300 300 300 301 300 300 300 299 299 292 296 298 290 286 291 291 292 290 290 290 289 285 286 288 281 285 285 281 280 284 280 284 283 284 280 284 281 285 285 284 287 285 284 283 284
297 297 297 296 297 298 300 300 300 300 299 300 300 300 300 300 299 297 293 293 290 285 285 287 286 290 293 293 294 288 288 292 291 290 286 285 283 284 280 282 280 285 282 282 282 283 284 284 285 285 285 284 283 283
296 297 297 297 296 297 298 300 300 300 299 300 300 299 299 299 298 296 292 292 292 287 284 284 290 288 292 292 291 292 292 292 291 289 281 283 283 284 283 283 282 283 285 279 278 281 281 284 285 285 284 284 283 282
297 296 297 297 296 296 298 299 299 300 299 299 299 298 297 297 297 294 293 293 294 289 284 283 285 289 290 290 289 290 290 291 288 285 285 282 283 283 283 282 279 280 281 284 281 285 284 287 286 285 285 284 283 283
297 296 297 297 296 296 297 298 298 299 299 299 297 297 297 296 295 291 285 292 293 293 285 280 285 283 284 288 288 288 288 289 289 286 286 285 283 284 281 281 284 282 282 285 285 280 280 278 278 280 283 282 281 280
297 297 297 297 297 296 297 298 299 299 299 299 297 297 297 298 294 287 285 289 293 292 285 279 281 284 285 285 284 285 286 285 286 285 284 284 280 284 282 280 286 281 281 280 280 280 280 278 280 275 276 275 275 274
297 297 297 297 297 296 296 298 298 299 299 299 298 296 298 298 294 287 291 293 291 287 285 280 280 280 284 282 280 282 282 283 282 284 283 283 281 283 281 282 282 281 281 281 280 278 278 276 273 273 271 272 273 274
298 297 297 297 297 297 296 297 298 299 299 299 297 296 293 290 283 284 291 291 287 286 278 280 278 277 283 281 281 280 283 279 280 280 280 280 281 279 280 282 281 281 282 281 276 272 272 274 272 271 270 269 272 272
297 297 297 297 297 297 296 297 298 299 299 298 291 284 280 284 291 290 283 279 283 278 279 276 278 277 280 281 278 279 279 277 275 272 274 276 279 280 280 278 277 277 278 278 274 274 271 271 271 270 268 266 267 267
297 297 297 296 297 297 297 296 298 299 297 287 283 280 285 290 283 279 273 272 271 269 273 275 276 277 280 278 276 278 277 275 274 272 274 274 273 278 277 276 274 274 273 270 269 268 268 271 270 268 266 265 264 263
297 297 298 296 296 297 297 296 298 294 287 288 286 285 282 278 275 271 270 272 268 270 274 274 276 278 277 280 276 275 274 272 272 272 273 271 276 275 275 273 271 268 267 265 263 264 263 264 262 263 260 260 261 260
296 297 297 297 296 297 297 297 297 295 291 285 281 275 275 273 271 268 266 267 272 275 274 274 273 275 274 276 274 274 272 270 268 270 271 274 273 271 270 268 267 261 259 261 262 260 260 261 258 258 260 259 259 259
296 297 297 297 296 297 297 297 297 294 286 279 274 269 270 267 270 273 273 273 271 272 275 274 273 276 276 268 268 264 263 265 263 262 266 269 269 269 263 261 264 264 261 261 262 260 260 259 259 258 258 257 256 257
293 295 297 296 296 296 297 297 297 289 284 275 272 267 271 272 264 262 263 266 266 277 275 273 268 273 266 264 264 261 260 260 264 266 268 269 266 264 262 262 262 263 262 263 261 261 260 259 258 259 259 257 256 256
291 292 291 296 296 296 297 296 291 285 283 276 270 266 268 271 263 261 263 269 268 274 270 272 267 265 263 265 262 263 264 264 268 267 267 267 263 262 263 262 262 260 260 260 260 260 259 259 258 257 255 257 256 255
289 286 292 296 296 296 296 287 284 282 280 276 274 271 273 274 270 267 268 269 269 270 270 269 265 265 266 263 263 264 266 268 270 268 269 266 266 264 261 261 260 260 260 259 259 258 257 256 254 254 258 258 257 258
284 288 292 295 294 291 289 285 284 283 279 279 273 272 273 272 273 268 270 273 271 269 269 270 269 263 264 264 264 267 266 265 268 271 268 266 262 260 260 260 258 258 258 258 256 256 255 256 257 257 256 256 256 256
285 288 291 295 292 285 283 282 284 279 277 275 271 270 270 267 265 268 267 267 266 268 271 268 266 266 268 268 267 268 271 266 270 264 261 258 259 258 258 257 258 257 256 256 256 256 256 256 256 255 256 255 256 257
287 290 291 295 290 284 281 280 281 276 274 273 270 269 268 267 267 270 270 267 268 269 268 267 269 269 268 264 264 273 270 272 272 266 261 260 259 258 258 258 257 256 257 257 257 258 256 257 257 257 256 255 254 258
285 287 290 289 279 277 274 273 271 272 272 268 267 268 264 268 269 271 272 269 270 268 269 268 265 263 260 258 263 267 264 263 262 265 264 260 259 259 257 258 257 257 257 256 256 257 257 256 256 256 256 256 255 256
284 289 284 281 273 271 268 268 270 268 269 267 268 268 268 268 268 270 272 273 269 264 264 266 265 264 262 258 257 257 256 262 260 262 262 261 258 258 258 258 258 257 256 256 255 255 255 256 256 255 255 257 257 257
286 285 278 277 270 269 263 267 268 269 266 268 269 268 267 267 265 265 270 266 260 262 261 263 263 264 262 260 261 260 260 263 262 261 259 259 258 257 256 256 256 256 256 257 257 257 257 259 258 259 258 259 259 260
285 277 274 269 268 263 267 265 268 267 268 269 265 262 263 263 263 269 266 261 261 263 263 263 264 263 263 263 262 260 261 263 262 260 257 259 260 257 255 254 254 254 255 255 255 255 255 255 258 256 256 256 257 257
273 270 268 262 266 265 264 264 266 268 265 265 262 260 261 263 266 266 262 260 261 262 263 264 265 265 263 261 261 260 261 263 263 260 259 260 260 258 258 256 256 256 255 255 254 254 254 255 255 256 256 255 256 257
267 265 266 266 264 265 264 263 266 263 261 260 261 261 260 265 262 256 256 257 259 259 260 262 262 262 262 263 262 261 260 261 262 260 260 262 261 259 257 257 257 258 259 258 256 254 254 254 253 254 255 256 257 256
260 260 263 264 261 264 265 266 266 265 264 262 260 261 264 258 255 255 257 257 258 258 260 261 263 262 261 260 261 261 261 261 261 262 262 262 261 260 260 258 257 259 261 260 259 258 257 258 257 258 259 259 256 255
259 259 258 256 255 258 263 268 267 265 264 264 260 254 253 252 250 253 255 257 258 260 259 260 260 260 259 259 259 260 260 261 261 261 262 261 260 260 261 261 260 265 261 259 259 259 258 257 257 257 256 256 258 258
258 259 256 251 252 253 252 253 254 255 254 257 253 250 249 251 253 253 255 256 257 257 255 256 257 259 259 259 258 258 258 259 261 259 258 257 258 258 260 261 260 261 261 261 263 263 262 259 258 255 255 254 256 255
255 259 254 251 250 249 251 254 252 253 253 252 252 251 251 252 254 256 255 254 254 253 254 254 255 255 255 256 256 256 257 256 256 256 255 254 255 257 259 259 259 259 260 258 257 256 259 256 256 253 254 253 255 254
256 259 254 252 251 253 254 256 256 255 255 253 254 252 251 252 254 255 255 255 254 254 254 253 254 254 254 253 253 254 254 256 256 256 257 257 258 258 259 259 259 258 256 253 251 250 250 251 249 249 251 252 251 252
259 255 252 251 253 257 258 256 255 254 254 253 253 254 253 251 249 252 255 255 253 252 253 253 252 253 255 255 255 255 256 255 255 256 258 259 259 259 258 257 256 254 251 251 250 250 249 248 248 249 250 250 250 250
257 257 257 257 257 257 259 258 257 254 253 251 251 252 251 250 248 252 256 256 254 253 253 254 255 255 255 255 255 255 255 255 256 259 260 261 260 260 257 256 255 254 253 252 252 251 250 249 249 249 248 248 249 249
Wind_Speed
14 13 13 13 11 11 7 6 6 7 9 9 8 8 6 5 3 4 2 7 9 3 3 2 5 5 5 7 5 4 4 1 2 3 3 4 3 4 1 7 8 9 8 5 4 2 11 6 4 9 5 1 4 2
15 13 12 13 12 11 10 7 7 6 8 9 8 8 9 4 0 1 3 1 2 3 0 2 3 3 4 2 5 8 5 5 5 3 5 3 1 2 4 5 2 7 7 7 9 7 3 8 2 5 2 4 3 3
16 14 14 13 13 12 11 8 8 6 7 9 8 9 11 6 5 4 2 2 3 2 1 1 4 2 0 2 3 5 1 5 5 2 2 2 3 2 5 4 3 5 1 4 5 3 5 8 6 4 3 3 4 4
16 16 14 14 14 13 11 11 8 7 7 8 8 10 8 1 2 4 1 1 2 1 2 3 2 1 3 3 4 4 3 4 5 3 2 3 4 2 2 3 4 5 7 7 4 3 4 9 10 4 6 6 6 3
16 17 15 14 14 14 13 12 8 7 6 6 5 7 2 3 5 4 1 2 1 1 1 2 2 1 3 4 4 3 0 2 3 2 2 3 1 3 3 5 2 5 7 7 7 9 6 4 9 6 9 6 6 6
18 17 17 15 15 14 14 13 9 8 6 5 2 4 3 7 5 2 2 2 2 1 3 1 2 2 1 2 4 5 5 1 0 3 2 2 1 3 3 3 6 5 3 2 4 1 3 2 2 2 8 7 5 4
20 18 18 16 16 14 14 13 11 10 8 7 5 6 7 12 1 1 2 1 1 2 2 1 3 2 1 3 2 2 2 1 2 2 3 3 3 4 3 7 6 7 3 3 2 5 4 1 3 2 5 4 4 4
20 19 18 17 16 15 15 14 11 11 9 8 4 4 7 7 7 1 1 2 1 3 1 2 2 3 1 3 3 0 3 2 1 2 0 2 3 2 6 5 4 2 4 3 4 2 3 4 2 1 1 4 4 2
21 21 19 18 17 16 15 14 12 11 10 9 6 5 1 1 1 2 2 5 1 2 3 2 4 3 1 2 2 2 1 3 1 3 3 2 4 7 6 5 5 5 6 7 4 4 4 4 2 1 3 4 3 4
22 21 20 18 18 17 16 15 12 11 13 12 4 2 3 3 5 8 3 2 1 2 1 2 0 3 1 2 1 3 0 3 4 2 2 4 4 0 2 1 2 1 3 5 5 2 3 2 2 2 3 1 1 2
25 23 21 19 21 18 18 17 14 12 13 2 3 4 2 4 1 1 2 2 1 2 3 1 1 4 0 2 3 1 2 1 4 3 2 3 4 4 4 4 1 3 2 2 3 4 4 4 4 4 4 2 1 2
26 24 23 22 22 21 20 19 18 9 4 6 5 4 2 2 1 3 4 1 3 6 4 5 3 3 3 1 3 1 2 1 3 1 1 3 4 3 5 4 3 2 2 4 2 5 4 5 5 4 1 3 4 2
28 27 25 25 24 24 23 22 22 16 12 3 2 3 4 3 3 8 9 5 4 7 7 5 4 3 2 1 3 3 4 2 1 1 5 4 2 2 3 4 3 2 5 5 5 5 5 4 4 3 3 4 3 4
24 28 27 27 26 26 25 25 23 17 4 4 6 5 8 5 7 7 5 5 3 5 10 5 5 4 3 4 2 6 2 3 0 2 6 3 5 6 3 2 4 3 4 4 3 3 3 2 2 3 4 3 2 4
20 12 29 27 28 27 26 25 25 5 4 5 6 8 9 3 3 1 0 3 2 7 7 5 4 3 1 5 2 5 4 3 6 6 4 4 5 5 4 2 4 4 4 4 3 3 1 1 2 5 4 3 4 4
19 17 12 28 29 28 28 24 11 3 4 3 4 2 1 1 1 0 2 3 2 5 2 3 5 4 2 5 4 7 8 7 6 4 3 6 5 4 4 3 3 2 3 2 2 2 1 3 3 4 5 6 4 3
19 6 11 29 28 30 29 6 4 6 7 7 5 2 5 0 4 4 4 4 3 4 4 4 6 7 3 3 1 3 6 5 5 3 3 5 7 6 4 5 4 4 3 3 3 3 2 3 4 4 5 5 4 5
10 5 17 27 25 11 6 5 5 8 10 4 7 5 4 2 4 3 3 6 5 3 3 5 6 4 6 8 4 5 2 1 4 5 5 6 5 5 4 5 2 4 5 3 1 2 1 3 2 2 3 4 5 4
11 9 17 29 17 5 6 6 4 5 2 4 4 4 4 4 1 1 3 2 1 1 6 3 4 4 5 4 3 3 6 3 7 3 3 4 5 5 5 5 5 4 3 2 1 1 2 4 4 3 3 2 2 3
25 21 15 27 19 4 7 3 1 5 6 4 4 5 4 4 4 3 4 1 3 3 3 3 5 3 2 2 2 5 4 7 9 5 3 1 2 4 4 4 3 2 3 3 2 3 3 3 2 3 3 2 2 5
17 12 18 13 4 4 4 2 2 2 6 4 4 3 5 2 3 4 4 1 3 2 2 1 3 1 2 2 4 6 5 4 3 4 5 3 0 4 3 3 3 3 3 2 3 2 3 1 3 3 3 4 3 3
6 17 4 3 5 3 6 1 3 2 3 6 5 4 6 4 4 3 4 2 3 2 2 2 3 2 3 5 4 5 3 9 7 7 8 7 4 3 2 1 3 2 2 2 2 1 3 2 2 3 2 4 4 4
5 9 3 4 7 5 4 2 5 0 6 6 4 6 3 4 2 2 4 3 2 2 2 3 4 8 9 4 7 8 7 8 7 6 5 4 4 4 4 3 3 3 3 3 2 2 2 5 4 4 4 4 4 5
4 1 4 5 6 6 5 4 3 4 4 4 4 6 3 4 2 0 4 3 1 1 4 5 5 6 5 5 5 5 4 4 6 5 4 4 5 3 3 2 3 3 2 2 2 3 3 3 5 3 3 3 4 4
5 5 4 6 3 8 6 6 5 4 4 3 6 4 4 3 4 4 3 2 3 4 3 1 2 4 4 5 5 4 4 2 5 7 3 2 3 3 4 3 2 2 1 3 3 3 4 4 4 5 5 4 6 7
2 5 3 4 4 7 7 7 6 6 5 5 4 4 3 3 6 5 3 4 4 4 5 3 2 5 6 5 4 3 3 2 2 5 2 3 5 4 3 3 2 2 1 0 1 3 4 3 3 5 5 7 6 5
6 6 4 3 2 5 7 4 4 6 6 5 5 5 4 6 5 3 2 5 4 4 4 5 5 6 6 5 5 4 3 2 4 5 5 4 5 4 4 3 2 2 4 3 2 2 3 5 5 5 6 6 4 4
5 6 7 7 8 8 7 5 6 5 4 4 6 8 6 6 4 3 4 5 4 4 6 8 9 8 8 7 5 4 5 4 6 6 6 5 3 4 6 3 2 7 3 2 2 2 2 3 4 4 4 5 7 6
4 8 5 9 9 11 11 9 6 5 5 2 6 6 6 5 4 4 4 6 6 7 8 7 8 6 7 8 8 8 7 6 4 8 8 4 3 4 6 5 5 5 5 5 9 9 8 4 4 2 4 3 4 5
7 7 6 10 11 11 8 7 7 7 9 10 12 18 15 10 9 8 9 9 10 9 7 7 6 7 7 7 7 9 9 8 8 5 4 3 2 5 5 5 5 5 5 4 4 5 7 4 4 4 5 5 5 5
6 4 8 8 10 11 14 15 16 18 19 19 14 16 15 8 8 12 12 10 8 8 8 9 9 8 8 8 6 5 5 6 7 6 5 2 3 4 5 5 5 5 4 3 3 2 2 2 3 3 5 7 7 6
5 7 6 13 16 13 12 12 14 17 14 13 11 7 5 5 7 6 10 9 10 10 10 8 7 6 6 5 5 4 5 3 5 5 7 5 5 5 5 4 4 4 3 3 3 2 3 4 4 5 5 7 7 7
10 10 9 8 6 5 3 5 6 7 7 6 7 6 6 5 8 4 4 8 7 7 7 6 4 3 3 4 6 5 7 5 7 10 11 11 11 9 4 3 3 3 3 2 2 3 5 6 5 6 6 6 7 7
Wind_Direction
274 278 286 282 299 309 290 277 268 282 295 307 320 330 330 321 279 205 223 218 199 224 263 269 215 165 168 173 144 179 100 310 116 206 180 184 201 201 168 166 180 171 174 174 151 212 261 141 60 167 209 141 137 144
269 269 274 275 283 296 298 284 272 264 290 302 317 333 332 294 280 309 252 137 217 176 149 317 354 1 8 24 131 196 160 153 168 140 191 144 209 131 177 191 261 201 187 168 185 213 207 206 186 214 214 141 141 117
267 263 263 272 271 279 294 288 283 245 283 301 312 329 323 258 264 192 201 168 83 133 101 179 225 94 12 349 352 140 273 157 167 115 132 106 251 164 178 220 107 254 146 143 87 255 203 219 265 253 166 98 101 94
257 261 256 262 269 271 278 284 290 236 273 299 309 328 328 212 272 133 168 205 119 149 179 167 79 216 72 50 44 47 11 68 84 91 120 155 172 144 312 255 167 200 141 157 270 296 360 265 234 217 163 142 121 102
247 254 253 250 260 265 273 284 265 272 259 285 309 333 21 83 118 92 145 211 195 259 74 127 91 194 120 170 136 127 299 0 114 124 156 212 94 118 115 292 243 196 179 167 212 199 166 217 233 172 171 188 173 159
247 245 247 240 247 255 263 273 258 275 246 244 266 336 169 129 144 54 334 207 202 238 106 161 72 121 317 174 153 182 195 249 37 143 173 177 36 117 163 257 283 209 193 129 182 115 129 179 288 339 158 171 176 157
246 241 244 240 237 246 252 262 264 248 234 211 240 286 256 206 286 148 236 327 287 276 136 169 199 143 86 83 57 94 83 122 120 139 219 155 191 198 168 225 228 280 134 114 81 107 35 358 175 312 94 92 81 90
240 240 239 236 234 234 240 255 265 247 213 195 226 315 280 183 118 228 207 161 224 94 50 247 127 158 209 136 114 42 115 154 152 177 133 179 107 220 239 230 165 186 136 122 161 114 135 125 101 58 133 83 65 25
235 234 235 236 233 228 231 242 247 233 195 176 129 91 1 41 196 216 139 128 96 161 196 209 174 182 166 94 118 133 184 149 114 202 159 156 154 218 219 182 162 180 190 165 96 93 66 96 142 181 84 52 85 293
233 231 227 236 231 228 220 229 235 225 180 139 96 96 240 218 147 127 11 65 0 311 12 229 63 130 189 159 114 129 7 147 177 215 137 204 243 286 183 127 83 357 96 150 126 169 204 132 138 74 69 75 109 260
226 226 222 221 236 220 214 216 221 209 140 86 162 209 107 174 60 159 163 157 187 276 189 147 179 132 217 147 122 316 127 179 185 159 212 191 261 214 120 118 79 60 93 91 114 142 118 141 114 70 8 16 358 314
222 220 219 212 228 218 208 205 216 181 158 173 145 107 113 144 255 127 205 251 195 222 151 158 149 110 130 155 113 222 126 21 195 102 179 245 238 117 135 130 85 53 110 108 53 95 59 62 67 76 328 293 277 269
224 219 217 208 215 218 204 199 212 144 131 82 91 114 117 227 197 192 199 245 208 173 174 166 132 129 131 181 74 150 155 175 35 131 223 231 163 126 133 130 118 56 59 63 49 42 57 67 72 149 246 251 263 277
236 217 214 207 209 211 202 193 204 154 113 159 153 216 189 199 232 197 189 169 185 128 149 135 119 142 130 69 136 97 243 78 88 227 233 215 190 167 153 131 105 76 63 84 98 104 99 84 337 292 242 248 249 288
272 268 211 204 205 204 200 190 190 146 155 182 139 216 204 189 66 51 330 83 306 145 127 114 64 105 94 93 75 108 49 236 199 225 213 170 155 140 138 120 91 70 66 65 51 43 10 356 343 309 295 270 251 262
264 270 251 199 199 196 195 187 181 122 174 186 195 114 231 100 158 204 218 117 255 141 58 69 129 89 213 139 111 210 138 207 232 203 173 116 125 130 120 106 107 109 117 105 96 96 323 29 315 268 296 280 291 248
253 229 217 199 193 190 191 144 153 177 189 198 206 138 168 161 159 163 155 163 165 108 173 129 106 193 106 64 264 193 200 210 154 115 101 115 132 129 133 105 87 79 67 47 35 3 321 321 356 354 353 318 327 291
231 212 202 203 180 177 183 148 194 192 202 177 158 164 134 83 113 126 100 147 129 187 113 186 126 121 167 167 235 213 151 22 59 102 99 93 98 85 95 114 91 63 52 29 349 302 41 17 354 299 297 288 303 319
227 204 218 198 165 148 165 159 218 197 141 110 86 78 100 111 53 58 122 80 86 144 107 58 97 175 216 212 159 137 135 153 134 122 83 63 83 97 89 76 86 79 88 146 94 176 224 204 205 240 265 327 313 299
231 231 226 210 147 157 163 178 103 136 171 146 88 109 78 104 127 101 104 120 135 118 78 138 195 198 140 261 271 121 127 127 123 102 89 77 83 111 107 124 128 131 87 50 77 69 22 9 346 337 326 315 336 313
231 223 226 232 110 74 76 110 70 91 131 98 122 106 96 175 122 137 147 219 72 151 143 102 83 76 4 329 36 81 59 72 105 122 147 127 1 93 64 41 57 62 84 67 74 7 34 338 282 312 322 304 283 275
210 178 192 128 99 94 90 95 104 75 91 131 118 116 117 121 123 134 141 117 93 43 27 42 99 121 53 31 19 40 107 87 75 82 67 92 97 86 64 60 70 54 69 80 61 336 289 288 309 303 318 303 304 299
197 165 194 145 107 81 106 212 101 296 125 151 129 107 101 113 85 312 92 68 91 1 346 54 59 84 99 85 72 55 42 76 84 80 80 91 91 80 74 43 54 75 48 4 2 347 325 324 334 338 319 328 332 332
95 176 216 113 94 105 141 103 114 118 108 153 99 109 121 119 161 169 87 62 35 342 57 91 112 101 82 58 62 54 38 78 98 71 41 96 96 58 79 76 56 64 106 294 351 339 331 325 323 324 315 317 314 312
177 199 126 90 129 120 114 127 126 114 106 111 107 123 152 164 106 80 82 62 35 43 52 28 27 58 90 97 85 73 23 38 108 103 21 50 109 92 57 53 75 117 64 27 352 340 321 323 322 321 319 310 306 309
122 17 333 141 148 110 151 122 133 138 116 93 84 113 163 118 77 74 58 357 13 17 1 5 92 89 70 68 109 95 69 31 69 92 66 52 66 87 93 87 43 334 11 356 292 309 305 299 297 310 304 307 299 308
46 355 328 331 71 106 96 66 100 105 112 120 145 152 131 80 88 74 86 12 8 3 352 6 60 81 91 81 66 58 61 55 62 98 115 94 78 63 62 61 12 285 313 296 301 291 299 313 316 317 316 320 309 305
22 2 357 340 57 12 81 69 49 61 81 80 73 51 69 53 80 55 17 346 355 32 46 50 55 62 66 56 43 41 42 81 92 97 97 81 68 62 25 2 313 343 319 292 287 294 301 280 287 303 318 317 319 323
23 348 37 19 47 44 39 20 32 29 344 23 89 90 89 61 17 37 11 24 36 50 48 43 32 41 64 65 54 47 39 28 110 99 83 70 23 5 351 345 341 342 351 349 345 349 331 331 325 296 292 280 283 293
0 349 84 40 54 40 16 14 55 53 57 78 97 104 92 78 57 47 46 37 39 42 44 47 39 41 41 43 59 56 43 39 37 47 70 53 340 301 319 331 340 344 343 341 331 325 336 350 340 358 3 360 1 351
313 35 60 59 84 95 91 88 82 78 77 85 92 91 99 115 83 47 38 30 32 35 38 37 42 34 40 38 31 32 50 28 18 12 354 304 308 320 331 342 339 336 334 329 322 313 329 352 10 9 18 20 9 8
42 47 91 103 110 115 107 82 74 74 70 66 62 50 62 61 67 48 13 13 24 29 23 23 25 26 22 30 34 38 24 347 346 334 355 358 353 356 345 339 334 331 333 340 339 2 41 49 31 25 13 11 5 5
68 85 100 107 118 115 178 108 106 82 41 50 43 38 40 61 74 24 14 16 18 12 6 359 359 17 23 33 30 19 9 356 358 7 12 14 10 11 360 339 319 312 319 341 358 17 41 47 38 23 12 4 1 3